Flag for France Weather past 2 weeks in Boulogne-Billancourt, France

Now
77 °F

Passing clouds.


Feels Like: 79 °F
Forecast: 53 / 78 °F
Wind: 8 mph from North

Location: Paris-Orly

Current Time: Jul 30, 2014 at 4:55:01 PM

Latest Report: Jul 30, 2014 at 4:30 PM


Visibility: N/A

Pressure: 29.98 "Hg

Humidity: 51%

Dew point: 57 °F

Location of Boulogne-BillancourtLocation

Historic Weather in Boulogne-Billancourt — Graph

°F

Boulogne-Billancourt temperature yesterday

Maximum temperature yesterday: 70 °F (at 3:30 PM)
Minimum temperature yesterday: 59 °F (at 4:30 AM)
Average temperature yesterday: 65 °F

Past Weeks' High & Low Weather Summary

 TemperatureHumidityPressure
High95 °F (Jul 18, 5:00 PM)94% (Jul 20, 5:30 AM)30.18 "Hg (Jul 20, 5:30 AM)
Low57 °F (Jul 30, 6:30 AM)33% (Jul 24, 4:30 PM)29.74 "Hg (Jul 19, 5:30 AM)
Average72 °F66%29.97 "Hg
* Reported Jul 15 4:00 PM — Jul 30 4:00 PM, Boulogne-Billancourt, Weather by CustomWeather, © 2014

Note: Actual official high and low records may vary slightly from our data, if they occured in-between our weather recording intervals... More about our weather records

Advertising

Boulogne-Billancourt weather history for previous 24 hours

 ConditionsComfort  
Time TempWeatherWind HumidityBarometerVisibility
4:00 PM
Jul 30
77 °FPartly sunny.7 mph47%29.98 "HgN/A
3:30 PM75 °FPartly sunny.7 mph50%29.98 "HgN/A
3:00 PM75 °FPartly sunny.8 mph50%29.98 "HgN/A
2:30 PM75 °FPartly sunny.8 mph50%29.98 "HgN/A
2:00 PM77 °FScattered clouds.8 mph47%29.98 "HgN/A
1:30 PM77 °FScattered clouds.7 mph47%29.98 "HgN/A
1:00 PM77 °FPassing clouds.7 mph51%29.98 "HgN/A
12:30 PM75 °FPassing clouds.6 mph50%29.98 "HgN/A
12:00 PM75 °FScattered clouds.6 mph50%29.98 "HgN/A
11:30 AM73 °FPassing clouds.6 mph53%29.98 "HgN/A
11:00 AM73 °FPassing clouds.6 mph53%29.98 "HgN/A
10:30 AM72 °FSunny.3 mph57%29.98 "Hg10 mi
10:00 AM70 °FSunny.2 mph60%29.98 "Hg10 mi
9:30 AM68 °FPassing clouds.5 mph69%29.98 "HgN/A
9:00 AM66 °FPassing clouds.5 mph73%29.98 "HgN/A
8:30 AM64 °FPassing clouds.5 mph78%29.95 "HgN/A
8:00 AM63 °FSunny.8 mph83%29.95 "Hg10 mi
7:30 AM59 °FSunny.7 mph94%29.95 "Hg10 mi
7:00 AM57 °FClear.8 mph94%29.95 "Hg10 mi
6:30 AM57 °FClear.6 mph94%29.95 "Hg10 mi
6:00 AM59 °FClear.8 mph88%29.95 "Hg10 mi
5:30 AM61 °FClear.9 mph83%29.95 "Hg10 mi
5:00 AM61 °FClear.7 mph83%29.95 "Hg10 mi
4:30 AM61 °FPassing clouds.6 mph83%29.95 "HgN/A
4:00 AM63 °FPassing clouds.9 mph77%29.95 "HgN/A
3:30 AM63 °FClear.8 mph77%29.95 "Hg10 mi
3:00 AM63 °FPassing clouds.8 mph77%29.95 "HgN/A
2:30 AM64 °FPassing clouds.7 mph73%29.95 "HgN/A
1:30 AM64 °FPassing clouds.9 mph83%29.95 "HgN/A
1:00 AM64 °FPassing clouds.10 mph83%29.95 "HgN/A
12:30 AM66 °FPassing clouds.12 mph78%29.95 "HgN/A
12:00 AM66 °FPassing clouds.13 mph78%29.95 "HgN/A
11:30 PM
Jul 29
68 °FPassing clouds.12 mph78%29.95 "HgN/A
11:00 PM68 °FPassing clouds.12 mph78%29.95 "HgN/A
10:30 PM70 °FPartly sunny.10 mph78%29.92 "HgN/A
10:00 PM70 °FPartly sunny.13 mph78%29.92 "HgN/A
9:30 PM70 °FPartly sunny.8 mph78%29.92 "HgN/A
9:00 PM68 °FPartly sunny.12 mph83%29.92 "HgN/A
8:30 PM70 °FPartly sunny.9 mph78%29.92 "HgN/A
8:00 PM68 °FPartly sunny.5 mph88%29.89 "HgN/A
7:30 PM68 °FPartly sunny.7 mph88%29.89 "HgN/A
7:00 PM68 °FLight rain. Broken clouds.12 mph88%29.89 "Hg2 mi
6:30 PM68 °FLight rain. Broken clouds.10 mph88%29.89 "Hg4 mi
6:00 PM70 °FLight rain. Partly sunny.9 mph83%29.89 "Hg2 mi
5:34 PM70 °FLight rain. Broken clouds.12 mph83%29.89 "Hg2 mi
5:00 PM70 °FBroken clouds.7 mph78%29.89 "HgN/A
4:30 PM70 °FPartly sunny.8 mph73%29.89 "HgN/A
4:00 PM70 °FPartly sunny.9 mph73%29.89 "HgN/A
Weather by CustomWeather, © 2014

See weather overviewHow to use our weather pages